SWA270 KIND-KBNA

Flight info

Callsign SWA270
Flight time 0h 48m
Altitude 30000
Route OOM5 OOM WEGEE ULTRA RYYMN3
Aircraft B738/M-SDE2E3FGHIRWXY/LB1

Departure

Time 2026-05-07 01:21
Airport Indianapolis International Airport (KIND)

Arrival

Time 2026-05-07 02:09
Airport Nashville International Airport (KBNA)
Time Latitude Longitude Altitude Speed Heading
2026-05-07 00:58 39.71816 -86.29725 785 ft 0 kts 128°
2026-05-07 01:11 39.71828 -86.29745 785 ft 4 kts 128°
2026-05-07 01:11 39.71845 -86.29772 784 ft 4 kts 128°
2026-05-07 01:11 39.71861 -86.29800 784 ft 4 kts 128°
2026-05-07 01:12 39.71877 -86.29826 785 ft 2 kts 128°
2026-05-07 01:12 39.71888 -86.29852 784 ft 4 kts 89°
2026-05-07 01:12 39.71879 -86.29880 784 ft 4 kts 41°
2026-05-07 01:12 39.71870 -86.29890 787 ft 1 kts 41°
2026-05-07 01:13 39.71869 -86.29890 787 ft 0 kts 41°
2026-05-07 01:15 39.71871 -86.29889 787 ft 1 kts 41°
2026-05-07 01:16 39.71887 -86.29871 784 ft 5 kts 40°
2026-05-07 01:16 39.71929 -86.29826 784 ft 10 kts 38°
2026-05-07 01:16 39.71999 -86.29755 783 ft 14 kts 38°
2026-05-07 01:16 39.72074 -86.29676 784 ft 14 kts 39°
2026-05-07 01:17 39.72146 -86.29607 782 ft 10 kts 25°
2026-05-07 01:17 39.72199 -86.29626 780 ft 8 kts 313°
2026-05-07 01:17 39.72251 -86.29689 778 ft 12 kts 337°
2026-05-07 01:17 39.72324 -86.29636 777 ft 13 kts 45°
2026-05-07 01:18 39.72387 -86.29555 778 ft 13 kts 44°
2026-05-07 01:18 39.72449 -86.29477 776 ft 12 kts 44°
2026-05-07 01:18 39.72509 -86.29402 776 ft 12 kts 44°
2026-05-07 01:18 39.72567 -86.29327 778 ft 12 kts 45°
2026-05-07 01:19 39.72624 -86.29255 779 ft 11 kts 44°
2026-05-07 01:19 39.72683 -86.29184 779 ft 12 kts 32°
2026-05-07 01:19 39.72753 -86.29217 780 ft 12 kts 314°
2026-05-07 01:19 39.72804 -86.29292 778 ft 9 kts 294°
2026-05-07 01:20 39.72793 -86.29337 777 ft 2 kts 226°
2026-05-07 01:20 39.72626 -86.29552 774 ft 70 kts 224°
2026-05-07 01:20 39.72116 -86.30201 779 ft 133 kts 224°
2026-05-07 01:20 39.71352 -86.31181 993 ft 166 kts 226°
2026-05-07 01:21 39.70516 -86.32291 1644 ft 176 kts 230°
2026-05-07 01:21 39.69700 -86.33437 2538 ft 168 kts 230°
2026-05-07 01:21 39.68895 -86.34604 3101 ft 183 kts 231°
2026-05-07 01:21 39.67941 -86.35833 3456 ft 206 kts 212°
2026-05-07 01:22 39.66532 -86.36498 3714 ft 228 kts 198°
2026-05-07 01:22 39.64950 -86.37106 3977 ft 248 kts 199°
2026-05-07 01:22 39.63231 -86.37838 4334 ft 266 kts 201°
2026-05-07 01:22 39.61469 -86.38618 5150 ft 269 kts 201°
2026-05-07 01:23 39.59720 -86.39411 5955 ft 272 kts 202°
2026-05-07 01:23 39.57907 -86.40250 6751 ft 273 kts 204°
2026-05-07 01:23 39.56140 -86.41085 7555 ft 273 kts 205°
2026-05-07 01:23 39.54356 -86.41941 8327 ft 275 kts 205°
2026-05-07 01:24 39.52543 -86.42830 9029 ft 280 kts 206°
2026-05-07 01:24 39.50733 -86.43723 9949 ft 276 kts 206°
2026-05-07 01:24 39.48921 -86.44612 10549 ft 284 kts 207°
2026-05-07 01:24 39.46997 -86.45564 10710 ft 307 kts 207°
2026-05-07 01:25 39.44934 -86.46580 10879 ft 328 kts 207°
2026-05-07 01:25 39.42746 -86.47648 11195 ft 342 kts 207°
2026-05-07 01:25 39.40508 -86.48729 11849 ft 345 kts 207°
2026-05-07 01:25 39.38264 -86.49805 12724 ft 341 kts 208°
2026-05-07 01:26 39.36046 -86.50869 13625 ft 339 kts 209°
2026-05-07 01:26 39.33841 -86.51929 14420 ft 338 kts 210°
2026-05-07 01:26 39.31664 -86.52979 15122 ft 340 kts 210°
2026-05-07 01:26 39.29438 -86.54056 15741 ft 343 kts 210°
2026-05-07 01:27 39.27193 -86.55140 16414 ft 345 kts 211°
2026-05-07 01:27 39.24937 -86.56227 17124 ft 347 kts 211°
2026-05-07 01:27 39.22667 -86.57320 17807 ft 348 kts 211°
2026-05-07 01:27 39.20390 -86.58416 18466 ft 350 kts 211°
2026-05-07 01:28 39.18097 -86.59519 19063 ft 351 kts 211°
2026-05-07 01:28 39.15805 -86.60619 19683 ft 352 kts 211°
2026-05-07 01:28 39.13532 -86.61774 20299 ft 348 kts 214°
2026-05-07 01:28 39.11333 -86.63063 20892 ft 347 kts 216°
2026-05-07 01:29 39.09143 -86.64383 21476 ft 348 kts 216°
2026-05-07 01:29 39.06949 -86.65715 21998 ft 349 kts 216°
2026-05-07 01:29 39.04747 -86.67049 22554 ft 350 kts 216°
2026-05-07 01:29 39.02538 -86.68381 23084 ft 351 kts 216°
2026-05-07 01:30 39.00347 -86.69698 23594 ft 353 kts 216°
2026-05-07 01:30 38.98112 -86.71038 24013 ft 354 kts 216°
2026-05-07 01:30 38.95871 -86.72378 24404 ft 356 kts 216°
2026-05-07 01:30 38.93618 -86.73724 24774 ft 358 kts 216°
2026-05-07 01:31 38.91348 -86.75079 25154 ft 360 kts 216°
2026-05-07 01:31 38.89069 -86.76437 25510 ft 362 kts 217°
2026-05-07 01:31 38.86779 -86.77800 25889 ft 364 kts 217°
2026-05-07 01:31 38.84478 -86.79169 26202 ft 365 kts 217°
2026-05-07 01:32 38.82163 -86.80546 26469 ft 369 kts 217°
2026-05-07 01:32 38.79821 -86.81939 26768 ft 372 kts 217°
2026-05-07 01:32 38.77468 -86.83335 27111 ft 373 kts 217°
2026-05-07 01:32 38.75105 -86.84735 27441 ft 375 kts 217°
2026-05-07 01:33 38.72732 -86.86141 27786 ft 376 kts 217°
2026-05-07 01:33 38.70358 -86.87543 28233 ft 374 kts 217°
2026-05-07 01:33 38.68004 -86.88932 28740 ft 371 kts 217°
2026-05-07 01:33 38.65670 -86.90310 29236 ft 369 kts 217°
2026-05-07 01:34 38.63336 -86.91692 29542 ft 371 kts 217°
2026-05-07 01:34 38.60990 -86.93083 29772 ft 374 kts 217°
2026-05-07 01:34 38.58646 -86.94470 29984 ft 377 kts 217°
2026-05-07 01:35 38.53840 -86.97246 30044 ft 384 kts 213°
2026-05-07 01:35 38.48586 -86.98961 30047 ft 396 kts 203°
2026-05-07 01:36 38.42985 -86.99471 30047 ft 405 kts 199°
2026-05-07 01:36 38.37353 -86.99888 30050 ft 406 kts 199°
2026-05-07 01:37 38.31711 -87.00319 30046 ft 406 kts 199°
2026-05-07 01:37 38.26103 -87.00759 29972 ft 407 kts 199°
2026-05-07 01:37 38.23269 -87.00985 29603 ft 407 kts 199°
2026-05-07 01:38 38.20451 -87.01204 29337 ft 406 kts 199°
2026-05-07 01:38 38.17628 -87.01428 29075 ft 407 kts 199°
2026-05-07 01:38 38.14791 -87.01655 28741 ft 408 kts 198°
2026-05-07 01:38 38.11954 -87.01881 28476 ft 410 kts 198°
2026-05-07 01:39 38.09102 -87.02108 28218 ft 411 kts 198°
2026-05-07 01:39 38.06243 -87.02334 27968 ft 413 kts 198°
2026-05-07 01:39 38.03374 -87.02560 27713 ft 414 kts 198°
2026-05-07 01:39 38.00498 -87.02786 27459 ft 414 kts 198°
2026-05-07 01:40 37.97617 -87.03012 27209 ft 415 kts 198°
2026-05-07 01:40 37.94733 -87.03238 26959 ft 416 kts 198°
2026-05-07 01:40 37.91838 -87.03464 26715 ft 416 kts 197°
2026-05-07 01:40 37.88939 -87.03692 26421 ft 417 kts 197°
2026-05-07 01:41 37.86040 -87.03919 26175 ft 418 kts 197°
2026-05-07 01:41 37.83135 -87.04148 25935 ft 419 kts 197°
2026-05-07 01:41 37.80220 -87.04376 25701 ft 420 kts 197°
2026-05-07 01:41 37.77300 -87.04604 25466 ft 420 kts 197°
2026-05-07 01:42 37.74380 -87.04831 25224 ft 420 kts 197°
2026-05-07 01:42 37.71505 -87.05053 24994 ft 419 kts 197°
2026-05-07 01:42 37.68603 -87.05277 24761 ft 417 kts 197°
2026-05-07 01:42 37.65715 -87.05501 24477 ft 415 kts 196°
2026-05-07 01:43 37.62833 -87.05724 24247 ft 413 kts 196°
2026-05-07 01:43 37.59969 -87.05947 24028 ft 412 kts 196°
2026-05-07 01:43 37.57115 -87.06170 23804 ft 410 kts 196°
2026-05-07 01:43 37.54270 -87.06392 23573 ft 409 kts 196°
2026-05-07 01:44 37.51435 -87.06613 23306 ft 407 kts 196°
2026-05-07 01:44 37.48606 -87.06832 23110 ft 405 kts 196°
2026-05-07 01:44 37.45788 -87.07052 23067 ft 404 kts 196°
2026-05-07 01:44 37.42979 -87.07271 23019 ft 405 kts 195°
2026-05-07 01:45 37.40155 -87.07494 23050 ft 408 kts 195°
2026-05-07 01:45 37.37360 -87.07709 22853 ft 402 kts 195°
2026-05-07 01:45 37.34601 -87.07906 22581 ft 391 kts 195°
2026-05-07 01:45 37.31916 -87.08028 22316 ft 381 kts 194°
2026-05-07 01:46 37.29302 -87.08108 22051 ft 371 kts 194°
2026-05-07 01:46 37.26751 -87.08181 21791 ft 363 kts 194°
2026-05-07 01:46 37.24219 -87.08265 21551 ft 364 kts 194°
2026-05-07 01:46 37.21676 -87.08361 21334 ft 367 kts 194°
2026-05-07 01:47 37.19116 -87.08459 21060 ft 368 kts 194°
2026-05-07 01:47 37.16547 -87.08557 20810 ft 370 kts 193°
2026-05-07 01:47 37.13980 -87.08652 20523 ft 368 kts 193°
2026-05-07 01:47 37.11453 -87.08742 20233 ft 365 kts 193°
2026-05-07 01:48 37.08895 -87.08835 19950 ft 363 kts 193°
2026-05-07 01:48 37.06403 -87.08926 19669 ft 361 kts 193°
2026-05-07 01:48 37.03890 -87.09020 19385 ft 360 kts 193°
2026-05-07 01:48 37.01386 -87.09114 19099 ft 360 kts 193°
2026-05-07 01:49 36.98885 -87.09208 18814 ft 359 kts 192°
2026-05-07 01:49 36.96387 -87.09301 18532 ft 359 kts 192°
2026-05-07 01:49 36.93887 -87.09394 18179 ft 360 kts 193°
2026-05-07 01:49 36.91380 -87.09487 17884 ft 359 kts 193°
2026-05-07 01:50 36.88888 -87.09579 17575 ft 359 kts 193°
2026-05-07 01:50 36.86381 -87.09672 17249 ft 359 kts 193°
2026-05-07 01:50 36.83941 -87.09758 16956 ft 352 kts 192°
2026-05-07 01:50 36.81477 -87.09511 16649 ft 363 kts 177°
2026-05-07 01:51 36.79092 -87.08333 16405 ft 371 kts 166°
2026-05-07 01:51 36.76797 -87.06893 16150 ft 367 kts 165°
2026-05-07 01:51 36.74537 -87.05446 15906 ft 362 kts 165°
2026-05-07 01:51 36.72302 -87.04037 15664 ft 358 kts 165°
2026-05-07 01:52 36.70088 -87.02670 15404 ft 355 kts 166°
2026-05-07 01:52 36.67876 -87.01316 15161 ft 352 kts 166°
2026-05-07 01:52 36.65681 -86.99977 14924 ft 350 kts 166°
2026-05-07 01:52 36.63524 -86.98662 14685 ft 349 kts 166°
2026-05-07 01:53 36.61345 -86.97333 14410 ft 347 kts 166°
2026-05-07 01:53 36.59184 -86.96014 14060 ft 345 kts 165°
2026-05-07 01:53 36.57035 -86.94704 13672 ft 342 kts 165°
2026-05-07 01:53 36.54902 -86.93406 13258 ft 340 kts 164°
2026-05-07 01:54 36.52785 -86.92119 12879 ft 338 kts 164°
2026-05-07 01:54 36.50675 -86.90836 12491 ft 337 kts 164°
2026-05-07 01:54 36.48573 -86.89559 12117 ft 335 kts 163°
2026-05-07 01:54 36.46477 -86.88287 11731 ft 334 kts 163°
2026-05-07 01:55 36.44399 -86.87026 11343 ft 332 kts 163°
2026-05-07 01:55 36.43021 -86.86190 11101 ft 331 kts 163°
2026-05-07 01:55 36.40954 -86.84936 10757 ft 329 kts 162°
2026-05-07 01:55 36.38253 -86.83294 10577 ft 317 kts 163°
2026-05-07 01:56 36.36955 -86.82505 10488 ft 312 kts 163°
2026-05-07 01:56 36.35027 -86.81337 10348 ft 304 kts 163°
2026-05-07 01:56 36.32542 -86.79834 10106 ft 297 kts 163°
2026-05-07 01:56 36.31299 -86.79084 10023 ft 291 kts 163°
2026-05-07 01:57 36.29510 -86.78001 9897 ft 284 kts 163°
2026-05-07 01:57 36.27742 -86.76935 9709 ft 279 kts 163°
2026-05-07 01:57 36.26016 -86.75892 9575 ft 273 kts 163°
2026-05-07 01:57 36.24294 -86.75136 9415 ft 251 kts 186°
2026-05-07 01:58 36.22636 -86.75332 9212 ft 233 kts 203°
2026-05-07 01:58 36.21114 -86.75876 8958 ft 230 kts 206°
2026-05-07 01:58 36.19594 -86.76468 8709 ft 229 kts 204°
2026-05-07 01:58 36.18035 -86.77070 8190 ft 242 kts 204°
2026-05-07 01:59 36.16401 -86.77689 7813 ft 248 kts 204°
2026-05-07 01:59 36.14753 -86.78302 7625 ft 244 kts 204°
2026-05-07 01:59 36.13122 -86.78907 7328 ft 246 kts 204°
2026-05-07 01:59 36.11515 -86.79629 7077 ft 244 kts 208°
2026-05-07 02:00 36.09947 -86.80432 6807 ft 244 kts 210°
2026-05-07 02:00 36.08385 -86.81272 6551 ft 245 kts 211°
2026-05-07 02:00 36.06833 -86.82137 6310 ft 244 kts 212°
2026-05-07 02:00 36.05285 -86.82981 6052 ft 245 kts 208°
2026-05-07 02:01 36.03686 -86.83741 5773 ft 246 kts 205°
2026-05-07 02:01 36.02060 -86.84423 5534 ft 246 kts 203°
2026-05-07 02:01 36.00433 -86.85058 5270 ft 246 kts 201°
2026-05-07 02:01 35.98789 -86.85638 5016 ft 245 kts 198°
2026-05-07 02:02 35.97138 -86.86160 4800 ft 245 kts 197°
2026-05-07 02:02 35.95484 -86.86658 4534 ft 243 kts 195°
2026-05-07 02:02 35.93829 -86.87124 4130 ft 246 kts 194°
2026-05-07 02:02 35.92141 -86.87333 3730 ft 251 kts 172°
2026-05-07 02:03 35.90546 -86.86516 3482 ft 249 kts 139°
2026-05-07 02:03 35.89528 -86.84826 3292 ft 242 kts 108°
2026-05-07 02:03 35.89370 -86.82843 3051 ft 235 kts 76°
2026-05-07 02:03 35.90078 -86.81070 2995 ft 231 kts 50°
2026-05-07 02:04 35.91133 -86.79565 2967 ft 232 kts 46°
2026-05-07 02:04 35.92217 -86.78096 2962 ft 231 kts 46°
2026-05-07 02:04 35.93304 -86.76640 2955 ft 230 kts 46°
2026-05-07 02:04 35.94447 -86.75270 2945 ft 227 kts 31°
2026-05-07 02:05 35.95881 -86.74628 2978 ft 214 kts 15°
2026-05-07 02:05 35.97277 -86.74075 2972 ft 207 kts 19°
2026-05-07 02:05 35.98594 -86.73520 2953 ft 191 kts 18°
2026-05-07 02:05 35.99809 -86.73020 2760 ft 180 kts 18°
2026-05-07 02:06 36.00955 -86.72563 2567 ft 167 kts 17°
2026-05-07 02:06 36.02012 -86.72138 2397 ft 152 kts 18°
2026-05-07 02:06 36.02997 -86.71741 2164 ft 148 kts 18°
2026-05-07 02:06 36.03963 -86.71349 1970 ft 146 kts 17°
2026-05-07 02:07 36.04929 -86.70968 1770 ft 146 kts 18°
2026-05-07 02:07 36.06856 -86.70191 1365 ft 147 kts 17°
2026-05-07 02:07 36.07822 -86.69803 1150 ft 148 kts 17°
2026-05-07 02:08 36.08801 -86.69408 963 ft 148 kts 16°
2026-05-07 02:08 36.09786 -86.69012 742 ft 148 kts 15°
2026-05-07 02:08 36.10763 -86.68624 584 ft 144 kts 16°
2026-05-07 02:08 36.11632 -86.68278 576 ft 110 kts 18°
2026-05-07 02:09 36.12216 -86.68044 575 ft 66 kts 18°
2026-05-07 02:09 36.12401 -86.67950 578 ft 13 kts 65°
2026-05-07 02:09 36.12396 -86.67906 575 ft 0 kts 114°
2026-05-07 02:09 36.12394 -86.67899 575 ft 3 kts 107°
2026-05-07 02:10 36.12383 -86.67850 580 ft 5 kts 106°
2026-05-07 02:10 36.12382 -86.67849 580 ft 0 kts 106°
2026-05-07 02:11 36.12381 -86.67844 576 ft 2 kts 106°
2026-05-07 02:11 36.12373 -86.67812 579 ft 6 kts 108°
2026-05-07 02:11 36.12354 -86.67743 578 ft 11 kts 101°
2026-05-07 02:12 36.12415 -86.67686 578 ft 14 kts 19°
2026-05-07 02:12 36.12506 -86.67619 579 ft 16 kts 44°
2026-05-07 02:12 36.12589 -86.67524 576 ft 16 kts 41°
2026-05-07 02:12 36.12672 -86.67458 575 ft 13 kts 24°
2026-05-07 02:13 36.12745 -86.67401 575 ft 13 kts 46°
2026-05-07 02:13 36.12808 -86.67326 573 ft 12 kts 43°
2026-05-07 02:13 36.12817 -86.67275 569 ft 7 kts 122°
2026-05-07 02:13 36.12789 -86.67228 571 ft 7 kts 133°
2026-05-07 02:14 36.12755 -86.67184 570 ft 8 kts 131°
2026-05-07 02:14 36.12708 -86.67116 574 ft 12 kts 130°
2026-05-07 02:14 36.12643 -86.67021 570 ft 16 kts 130°
2026-05-07 02:14 36.12617 -86.66935 571 ft 10 kts 53°
2026-05-07 02:15 36.12636 -86.66863 571 ft 9 kts 62°
2026-05-07 02:15 36.12682 -86.66809 573 ft 9 kts 42°
2026-05-07 02:15 36.12696 -86.66759 571 ft 5 kts 102°
2026-05-07 02:15 36.12687 -86.66718 571 ft 3 kts 107°
2026-05-07 02:16 36.12684 -86.66709 570 ft 0 kts 106°
2026-05-07 02:16 36.12684 -86.66706 570 ft 2 kts 108°
2026-05-07 02:16 36.12683 -86.66705 570 ft 0 kts 108°